Time,TemperatureF,DewpointF,PressureIn,WindDirection,WindDirectionDegrees,WindSpeedMPH,WindSpeedGustMPH,Humidity,HourlyPrecipIn,Conditions,Clouds,dailyrainin,SoftwareType,DateUTC
2013-02-27 00:07:00,41.0,37.1,29.51,West,270,8.3,-999.0,86,-99.99,,,0.00,Acu-Link.com,2013-02-27 05:07:00,
2013-02-27 00:22:00,41.0,36.8,29.52,SSW,202,7.8,-999.0,85,-99.99,,,0.00,Acu-Link.com,2013-02-27 05:22:00,
2013-02-27 00:37:00,41.0,36.8,29.52,SW,225,8.3,-999.0,85,-99.99,,,0.00,Acu-Link.com,2013-02-27 05:37:00,
2013-02-27 00:53:00,41.0,36.8,29.52,SW,225,6.3,-999.0,85,-99.99,,,0.00,Acu-Link.com,2013-02-27 05:53:00,
2013-02-27 01:08:00,41.0,37.1,29.52,SW,225,7.8,-999.0,86,-99.99,,,0.00,Acu-Link.com,2013-02-27 06:08:00,
2013-02-27 01:23:00,41.0,37.1,29.52,SW,225,7.8,-999.0,86,-99.99,,,0.00,Acu-Link.com,2013-02-27 06:23:00,
2013-02-27 01:38:00,41.0,37.1,29.52,SSW,202,7.2,-999.0,86,-99.99,,,0.00,Acu-Link.com,2013-02-27 06:38:00,
2013-02-27 01:54:00,41.0,37.4,29.53,WSW,247,7.8,-999.0,87,-99.99,,,0.00,Acu-Link.com,2013-02-27 06:54:00,
2013-02-27 02:09:00,41.0,37.7,29.53,SW,225,9.8,-999.0,88,-99.99,,,0.00,Acu-Link.com,2013-02-27 07:09:00,
2013-02-27 02:24:00,41.0,37.4,29.53,SW,225,7.8,-999.0,87,-99.99,,,0.00,Acu-Link.com,2013-02-27 07:24:00,
2013-02-27 02:40:00,41.0,37.1,29.53,WSW,247,7.8,-999.0,86,-99.99,,,0.00,Acu-Link.com,2013-02-27 07:40:00,
2013-02-27 02:55:00,41.0,37.1,29.54,SW,225,6.3,-999.0,86,-99.99,,,0.00,Acu-Link.com,2013-02-27 07:55:00,
2013-02-27 03:10:00,41.0,36.5,29.54,SW,225,5.6,-999.0,84,-99.99,,,0.00,Acu-Link.com,2013-02-27 08:10:00,
2013-02-27 03:25:00,41.0,35.9,29.54,West,270,4.0,-999.0,82,-99.99,,,0.00,Acu-Link.com,2013-02-27 08:25:00,
2013-02-27 03:41:00,41.0,35.3,29.53,WSW,247,7.2,-999.0,80,-99.99,,,0.00,Acu-Link.com,2013-02-27 08:41:00,
2013-02-27 03:56:00,41.0,34.7,29.54,West,270,7.8,-999.0,78,-99.99,,,0.00,Acu-Link.com,2013-02-27 08:56:00,
2013-02-27 04:18:00,41.0,34.7,29.54,WSW,247,5.6,-999.0,78,-99.99,,,0.00,Acu-Link.com,2013-02-27 09:18:00,
2013-02-27 04:33:00,41.0,34.4,29.54,WSW,247,7.2,-999.0,77,-99.99,,,0.00,Acu-Link.com,2013-02-27 09:33:00,
2013-02-27 04:48:00,41.0,34.4,29.55,West,270,3.6,-999.0,77,-99.99,,,0.00,Acu-Link.com,2013-02-27 09:48:00,
2013-02-27 05:04:00,39.2,33.2,29.55,SSW,202,6.3,-999.0,79,-99.99,,,0.00,Acu-Link.com,2013-02-27 10:04:00,
2013-02-27 05:19:00,37.4,31.8,29.56,SW,225,3.1,-999.0,80,-99.99,,,0.00,Acu-Link.com,2013-02-27 10:19:00,
2013-02-27 05:34:00,37.4,32.4,29.56,SW,225,4.7,-999.0,82,-99.99,,,0.00,Acu-Link.com,2013-02-27 10:34:00,
2013-02-27 05:49:00,37.4,32.7,29.57,West,270,3.1,-999.0,83,-99.99,,,0.00,Acu-Link.com,2013-02-27 10:49:00,
2013-02-27 06:05:00,37.4,32.7,29.57,SW,225,3.6,-999.0,83,-99.99,,,0.00,Acu-Link.com,2013-02-27 11:05:00,
2013-02-27 06:20:00,37.4,32.4,29.57,WSW,247,5.1,-999.0,82,-99.99,,,0.00,Acu-Link.com,2013-02-27 11:20:00,
2013-02-27 06:35:00,37.4,32.4,29.58,SW,225,5.1,-999.0,82,-99.99,,,0.00,Acu-Link.com,2013-02-27 11:35:00,
2013-02-27 06:51:00,37.4,32.4,29.57,West,270,4.7,-999.0,82,-99.99,,,0.00,Acu-Link.com,2013-02-27 11:51:00,
2013-02-27 07:06:00,37.4,32.1,29.58,WSW,247,6.3,-999.0,81,-99.99,,,0.00,Acu-Link.com,2013-02-27 12:06:00,
2013-02-27 07:21:00,37.4,32.1,29.58,WSW,247,8.3,-999.0,81,-99.99,,,0.00,Acu-Link.com,2013-02-27 12:21:00,
2013-02-27 07:37:00,37.4,31.8,29.60,West,270,5.6,-999.0,80,-99.99,,,0.00,Acu-Link.com,2013-02-27 12:37:00,
2013-02-27 07:52:00,41.0,34.0,29.60,South,180,5.1,-999.0,76,-99.99,,,0.00,Acu-Link.com,2013-02-27 12:52:00,
2013-02-27 08:07:00,42.8,34.4,29.61,WSW,247,5.1,-999.0,72,-99.99,,,0.00,Acu-Link.com,2013-02-27 13:07:00,
2013-02-27 08:22:00,42.8,34.1,29.61,WSW,247,6.3,-999.0,71,-99.99,,,0.00,Acu-Link.com,2013-02-27 13:22:00,
2013-02-27 08:38:00,42.8,33.7,29.62,WSW,247,4.0,-999.0,70,-99.99,,,0.00,Acu-Link.com,2013-02-27 13:38:00,
2013-02-27 08:53:00,42.8,33.0,29.62,SW,225,5.6,-999.0,68,-99.99,,,0.00,Acu-Link.com,2013-02-27 13:53:00,
2013-02-27 09:08:00,44.6,34.3,29.62,WSW,247,5.6,-999.0,67,-99.99,,,0.00,Acu-Link.com,2013-02-27 14:08:00,
2013-02-27 09:24:00,44.6,33.6,29.62,WSW,247,13.0,-999.0,65,-99.99,,,0.00,Acu-Link.com,2013-02-27 14:24:00,
2013-02-27 09:39:00,44.6,33.2,29.64,South,180,5.1,-999.0,64,-99.99,,,0.00,Acu-Link.com,2013-02-27 14:39:00,
2013-02-27 09:54:00,46.4,34.1,29.65,WSW,247,5.1,-999.0,62,-99.99,,,0.00,Acu-Link.com,2013-02-27 14:54:00,
2013-02-27 10:10:00,46.4,33.7,29.65,SSW,202,4.7,-999.0,61,-99.99,,,0.00,Acu-Link.com,2013-02-27 15:10:00,
2013-02-27 10:25:00,46.4,33.3,29.64,WSW,247,5.6,-999.0,60,-99.99,,,0.00,Acu-Link.com,2013-02-27 15:25:00,
2013-02-27 10:40:00,48.2,34.6,29.65,SSW,202,6.3,-999.0,59,-99.99,,,0.00,Acu-Link.com,2013-02-27 15:40:00,
2013-02-27 10:55:00,50.0,35.4,29.64,SW,225,7.2,-999.0,57,-99.99,,,0.00,Acu-Link.com,2013-02-27 15:55:00,
2013-02-27 11:11:00,50.0,35.4,29.65,South,180,5.6,-999.0,57,-99.99,,,0.00,Acu-Link.com,2013-02-27 16:11:00,
2013-02-27 11:26:00,51.8,35.7,29.64,SW,225,7.2,-999.0,54,-99.99,,,0.00,Acu-Link.com,2013-02-27 16:26:00,
2013-02-27 11:41:00,51.8,36.6,29.65,West,270,6.3,-999.0,56,-99.99,,,0.00,Acu-Link.com,2013-02-27 16:41:00,
2013-02-27 11:57:00,51.8,35.7,29.64,SW,225,11.9,-999.0,54,-99.99,,,0.00,Acu-Link.com,2013-02-27 16:57:00,
2013-02-27 12:12:00,51.8,36.2,29.64,SSW,202,8.7,-999.0,55,-99.99,,,0.00,Acu-Link.com,2013-02-27 17:12:00,
2013-02-27 12:27:00,51.8,35.2,29.64,SSW,202,5.6,-999.0,53,-99.99,,,0.00,Acu-Link.com,2013-02-27 17:27:00,
2013-02-27 12:43:00,53.6,37.4,29.63,SSE,157,7.8,-999.0,54,-99.99,,,0.00,Acu-Link.com,2013-02-27 17:43:00,
2013-02-27 12:58:00,53.6,36.4,29.63,SSW,202,7.8,-999.0,52,-99.99,,,0.00,Acu-Link.com,2013-02-27 17:58:00,
2013-02-27 13:13:00,51.8,35.7,29.62,SW,225,8.3,-999.0,54,-99.99,,,0.00,Acu-Link.com,2013-02-27 18:13:00,
2013-02-27 13:28:00,53.6,36.9,29.62,SSW,202,12.3,-999.0,53,-99.99,,,0.00,Acu-Link.com,2013-02-27 18:28:00,
2013-02-27 13:44:00,53.6,37.4,29.61,SW,225,5.6,-999.0,54,-99.99,,,0.00,Acu-Link.com,2013-02-27 18:44:00,
2013-02-27 13:59:00,53.6,36.4,29.60,South,180,10.7,-999.0,52,-99.99,,,0.00,Acu-Link.com,2013-02-27 18:59:00,
2013-02-27 14:14:00,53.6,36.4,29.60,SW,225,10.3,-999.0,52,-99.99,,,0.00,Acu-Link.com,2013-02-27 19:14:00,
2013-02-27 14:29:00,53.6,36.4,29.59,South,180,6.3,-999.0,52,-99.99,,,0.00,Acu-Link.com,2013-02-27 19:29:00,
2013-02-27 14:45:00,55.4,37.6,29.59,South,180,7.8,-999.0,51,-99.99,,,0.00,Acu-Link.com,2013-02-27 19:45:00,
2013-02-27 15:00:00,55.4,37.6,29.59,WSW,247,9.2,-999.0,51,-99.99,,,0.00,Acu-Link.com,2013-02-27 20:00:00,
2013-02-27 15:15:00,55.4,36.6,29.58,SSW,202,5.1,-999.0,49,-99.99,,,0.00,Acu-Link.com,2013-02-27 20:15:00,
2013-02-27 15:30:00,55.4,37.1,29.58,SSW,202,9.8,-999.0,50,-99.99,,,0.00,Acu-Link.com,2013-02-27 20:30:00,
2013-02-27 15:46:00,55.4,36.6,29.58,SW,225,3.6,-999.0,49,-99.99,,,0.00,Acu-Link.com,2013-02-27 20:46:00,
2013-02-27 16:01:00,55.4,36.0,29.57,SSW,202,6.3,-999.0,48,-99.99,,,0.00,Acu-Link.com,2013-02-27 21:01:00,
2013-02-27 16:16:00,55.4,36.0,29.56,WSW,247,10.7,-999.0,48,-99.99,,,0.00,Acu-Link.com,2013-02-27 21:16:00,
2013-02-27 16:31:00,57.2,37.7,29.57,WSW,247,5.6,-999.0,48,-99.99,,,0.00,Acu-Link.com,2013-02-27 21:31:00,
2013-02-27 16:46:00,55.4,36.0,29.57,South,180,7.8,-999.0,48,-99.99,,,0.00,Acu-Link.com,2013-02-27 21:46:00,
2013-02-27 17:02:00,55.4,35.5,29.57,SW,225,10.7,-999.0,47,-99.99,,,0.00,Acu-Link.com,2013-02-27 22:02:00,
2013-02-27 17:17:00,55.4,36.0,29.56,SW,225,6.7,-999.0,48,-99.99,,,0.00,Acu-Link.com,2013-02-27 22:17:00,
2013-02-27 17:32:00,55.4,36.0,29.56,SSW,202,10.3,-999.0,48,-99.99,,,0.00,Acu-Link.com,2013-02-27 22:32:00,
2013-02-27 17:48:00,53.6,34.9,29.57,SW,225,7.8,-999.0,49,-99.99,,,0.00,Acu-Link.com,2013-02-27 22:48:00,
2013-02-27 18:03:00,53.6,35.4,29.59,SSW,202,9.2,-999.0,50,-99.99,,,0.00,Acu-Link.com,2013-02-27 23:03:00,
2013-02-27 18:18:00,51.8,35.2,29.58,WSW,247,5.6,-999.0,53,-99.99,,,0.00,Acu-Link.com,2013-02-27 23:18:00,
2013-02-27 18:34:00,51.8,36.2,29.59,West,270,7.2,-999.0,55,-99.99,,,0.00,Acu-Link.com,2013-02-27 23:34:00,
2013-02-27 18:49:00,50.0,34.9,29.59,SSW,202,5.6,-999.0,56,-99.99,,,0.00,Acu-Link.com,2013-02-27 23:49:00,
2013-02-27 19:04:00,50.0,34.9,29.59,WSW,247,6.7,-999.0,56,-99.99,,,0.00,Acu-Link.com,2013-02-28 00:04:00,
2013-02-27 19:19:00,50.0,34.9,29.60,West,270,5.6,-999.0,56,-99.99,,,0.00,Acu-Link.com,2013-02-28 00:19:00,
2013-02-27 19:35:00,50.0,35.4,29.61,SSW,202,4.0,-999.0,57,-99.99,,,0.00,Acu-Link.com,2013-02-28 00:35:00,
2013-02-27 19:50:00,50.0,34.5,29.61,SSW,202,8.3,-999.0,55,-99.99,,,0.00,Acu-Link.com,2013-02-28 00:50:00,
2013-02-27 20:05:00,50.0,33.6,29.61,SW,225,7.2,-999.0,53,-99.99,,,0.00,Acu-Link.com,2013-02-28 01:05:00,
2013-02-27 20:21:00,50.0,33.6,29.60,SW,225,5.6,-999.0,53,-99.99,,,0.00,Acu-Link.com,2013-02-28 01:21:00,
2013-02-27 20:36:00,50.0,33.6,29.60,West,270,5.6,-999.0,53,-99.99,,,0.00,Acu-Link.com,2013-02-28 01:36:00,
2013-02-27 20:51:00,50.0,33.1,29.60,West,270,4.7,-999.0,52,-99.99,,,0.00,Acu-Link.com,2013-02-28 01:51:00,
2013-02-27 21:07:00,50.0,33.6,29.60,West,270,5.6,-999.0,53,-99.99,,,0.00,Acu-Link.com,2013-02-28 02:07:00,
2013-02-27 21:22:00,48.2,32.3,29.60,SW,225,2.7,-999.0,54,-99.99,,,0.00,Acu-Link.com,2013-02-28 02:22:00,
2013-02-27 21:37:00,46.4,31.6,29.61,SSW,202,4.0,-999.0,56,-99.99,,,0.00,Acu-Link.com,2013-02-28 02:37:00,
2013-02-27 21:52:00,46.4,32.0,29.61,West,270,2.7,-999.0,57,-99.99,,,0.00,Acu-Link.com,2013-02-28 02:52:00,
2013-02-27 22:08:00,46.4,32.9,29.62,NNE,22,3.1,-999.0,59,-99.99,,,0.00,Acu-Link.com,2013-02-28 03:08:00,
2013-02-27 22:23:00,46.4,33.7,29.62,West,270,3.6,-999.0,61,-99.99,,,0.00,Acu-Link.com,2013-02-28 03:23:00,
2013-02-27 22:38:00,46.4,34.9,29.61,West,270,2.0,-999.0,64,-99.99,,,0.00,Acu-Link.com,2013-02-28 03:38:00,
2013-02-27 22:54:00,46.4,35.3,29.62,WSW,247,4.0,-999.0,65,-99.99,,,0.00,Acu-Link.com,2013-02-28 03:54:00,
2013-02-27 23:09:00,46.4,35.7,29.61,West,270,2.7,-999.0,66,-99.99,,,0.00,Acu-Link.com,2013-02-28 04:09:00,
2013-02-27 23:24:00,46.4,36.0,29.61,West,270,4.7,-999.0,67,-99.99,,,0.00,Acu-Link.com,2013-02-28 04:24:00,
2013-02-27 23:39:00,46.4,34.9,29.60,West,270,4.7,-999.0,64,-99.99,,,0.00,Acu-Link.com,2013-02-28 04:39:00,
2013-02-27 23:55:00,46.4,34.9,29.60,WSW,247,6.3,-999.0,64,-99.99,,,0.00,Acu-Link.com,2013-02-28 04:55:00,